Kalispell, MT

6:33 AM MDT on September 20, 2017 (GMT -0600)
Glacier Park International

Weather History for KGPI - October, 2014

Change the Weather History Date:

Monday, October 6, 2014

  Actual Average Record
Temperature  
Mean Temperature 57 °F 46 °F  
Max Temperature 75 °F 60 °F 80 °F (1942)
Min Temperature 39 °F 32 °F 15 °F (2000)
Degree Days  
Heating Degree Days 8 19  
Month to date heating degree days 98 109  
Since 1 July heating degree days 463 609  
Cooling Degree Days 0 0  
Month to date cooling degree days 0 0  
Year to date cooling degree days 217 147  
Growing Degree Days 6 (Base 50)    
Moisture  
Dew Point 44 °F    
Average Humidity 68    
Maximum Humidity 100    
Minimum Humidity 35    
Precipitation  
Precipitation 0.00 in 0.03 in 0.40 in (1903)
Month to date precipitation 0.01 0.18  
Year to date precipitation 15.49 13.17  
Snow  
Snow 0.00 in - - ()
Month to date snowfall 0.0  
Year to date snowfall 38.2  
Since 1 July snowfall 0.0  
Snow Depth 0.00 in    
Sea Level Pressure  
Sea Level Pressure 29.95 in    
Wind  
Wind Speed 5 mph (South)    
Max Wind Speed 14 mph    
Max Gust Speed 17 mph    
Visibility 10 miles    
Events      
T = Trace of Precipitation, MM = Missing Value Source: NWS Daily Summary

Daily Weather History Graph

Daily Weather History Graph

Search for Another Location

Airport or City:

Trip Planner

Search our weather history database for the weather conditions in past years. The results will help you decide how hot, cold, wet, or windy it might be!

Date:

Astronomy

Oct. 06, 2014 Rise Set
Actual Time 7:43 AM MDT 7:05 PM MDT
Civil Twilight 7:12 AM MDT 7:36 PM MDT
Nautical Twilight 6:36 AM MDT 8:12 PM MDT
Astronomical Twilight 5:59 AM MDT 8:49 PM MDT
Moon 6:11 PM MDT (10/6) 5:26 AM MDT (10/6)
Length of Visible Light 12h 24m
Length of Day
11h 22m
Waxing Gibbous, 96% of the Moon is Illuminated
Oct 6
Waxing Gibbous
Oct 8
Full
Oct 15
Last Quarter
Oct 23
New
Oct 30
First Quarter

Hourly Weather History & Observations

Time (MDT) Temp. Windchill Dew Point Humidity Pressure Visibility Wind Dir Wind Speed Gust Speed Precip Events Conditions
12:55 AM 46.9 °F - 41.0 °F 80% 30.01 in 10.0 mi Calm Calm - N/A   Clear
1:55 AM 45.0 °F 42.6 °F 42.1 °F 90% 30.00 in 10.0 mi East 4.6 mph - N/A   Clear
2:55 AM 42.1 °F - 39.0 °F 89% 30.00 in 10.0 mi Calm Calm - N/A   Clear
3:55 AM 41.0 °F - 39.0 °F 93% 29.99 in 10.0 mi Calm Calm - N/A   Clear
4:55 AM 42.1 °F - 39.0 °F 89% 29.98 in 10.0 mi Calm Calm - N/A   Clear
5:55 AM 41.0 °F 39.0 °F 39.0 °F 93% 29.99 in 10.0 mi North 3.5 mph - N/A   Clear
6:55 AM 39.9 °F - 37.9 °F 93% 30.01 in 10.0 mi Calm Calm - N/A   Clear
7:55 AM 39.9 °F 37.8 °F 39.0 °F 97% 30.02 in 10.0 mi South 3.5 mph - N/A   Mostly Cloudy
8:55 AM 43.0 °F 41.3 °F 41.0 °F 93% 30.02 in 10.0 mi East 3.5 mph - N/A   Clear
9:55 AM 50.0 °F - 45.0 °F 83% 30.02 in 10.0 mi Calm Calm - N/A   Clear
10:55 AM 55.0 °F - 45.0 °F 69% 30.01 in 10.0 mi Calm Calm - N/A   Clear
11:55 AM 60.1 °F - 45.0 °F 57% 30.01 in 10.0 mi Variable 3.5 mph - N/A   Clear
12:55 PM 66.0 °F - 45.0 °F 47% 29.96 in 10.0 mi South 5.8 mph - N/A   Clear
1:55 PM 71.1 °F - 45.0 °F 39% 29.93 in 10.0 mi South 9.2 mph - N/A   Partly Cloudy
2:55 PM 73.9 °F - 45.0 °F 35% 29.90 in 10.0 mi South 10.4 mph - N/A   Mostly Cloudy
3:55 PM 72.0 °F - 46.0 °F 40% 29.88 in 10.0 mi SSE 9.2 mph - N/A   Overcast
4:55 PM 72.0 °F - 46.9 °F 41% 29.87 in 10.0 mi South 6.9 mph - N/A   Overcast
5:55 PM 69.1 °F - 48.9 °F 49% 29.88 in 10.0 mi SSE 11.5 mph - N/A   Overcast
6:55 PM 69.1 °F - 48.0 °F 47% 29.88 in 10.0 mi WSW 8.1 mph - N/A   Overcast
7:55 PM 71.1 °F - 46.0 °F 41% 29.89 in 10.0 mi West 9.2 mph - N/A   Overcast
8:55 PM 68.0 °F - 46.0 °F 45% 29.91 in 10.0 mi WSW 3.5 mph - N/A   Overcast
9:55 PM 68.0 °F - 46.0 °F 45% 29.90 in 10.0 mi WSW 4.6 mph - N/A   Overcast
10:55 PM 64.0 °F - 48.0 °F 56% 29.91 in 10.0 mi Calm Calm - N/A   Overcast
11:55 PM 61.0 °F - 48.0 °F 62% 29.91 in 10.0 mi SSE 4.6 mph - N/A   Overcast